Weather in Kranevo

Bulgaria     43°20′27″N   28°03′24″E
temp.,
°C
wind,
m/s
gust,
m/s
humid.,
%
clouds,
%
prec.,
mm/h
press.,
hPa
HPBL,
m
11 may, tue
tue1100:00+9se23695 0.0 1023195
03:00+8se23710 0.0 1022193
06:00+8ssw12720 0.0 1021168
09:00+12se12600 0.0 1021436
12:00+14se33500 0.0 1021626
15:00+15se33480 0.0 1019595
18:00+14se22500 0.0 1018326
21:00+10sw22650 0.0 101754
12 may, wed
wed1200:00+9w22610 0.0 101649
03:00+9w32550 0.0 101442
06:00+9wnw22510 0.0 101336
09:00+14s12460 0.0 1012213
12:00+16sse34490 0.0 1011474
15:00+16sse45530 0.0 1011465
18:00+15se356116 0.0 1010378
21:00+12se3482100 0.0 101083
13 may, thu
thu1300:00+12se3682100 0.0 1009184
03:00+12ese3488100 0.0 1008139
06:00+12se349173 0.0 1008147
09:00+14sse4582100 0.1 1008497
12:00+15sse43735 0.0 1008506
15:00+17se3269100 0.0 1008532
18:00+16se22713 0.0 1007247
21:00+13ese11845 0.0 100813
14 may, fri
fri1400:00+12sse22860 0.0 100819
03:00+13ssw1190100 0.0 100715
06:00+12wnw3492100 0.0 100891
09:00+15nw3584100 0.0 1009288
12:00+20wnw246273 0.0 1010921
15:00+19s447131 2.3 1010598
18:00+17s338126 1.9 1011183
21:00+15wsw3385100 4.2 101244
15 may, sat
sat1500:00+13w33870 0.9 101245
03:00+12w44832 0.9 101369
06:00+12wnw33795 0.0 101348
09:00+17s11685 0.0 1014233
12:00+19se32625 0.0 1014606
15:00+19se34605 0.0 1013424
18:00+18ese24665 0.0 1012277
21:00+14ese3388100 0.0 101036